Probability
1 0 0 0 0 0 0 0 0 1 1 1 0 0 0 0 2 4 6 8 9 9 10 11 9 6 4 5 8 10 10 7 4 3 3 2 2 2 1 1 2 4 4
2 1 0 0 0 0 0 0 0 0 0 0 0 0 0 1 2 5 7 9 9 9 9 10 9 7 6 6 8 10 9 7 5 3 3 2 1 1 1 1 2 3 4
3 2 1 1 0 0 0 0 0 0 0 0 0 0 0 2 3 5 7 9 9 8 8 9 9 7 6 7 9 10 9 7 6 5 4 2 1 0 0 0 1 3 4
3 3 3 2 1 0 0 0 0 0 0 0 0 0 0 1 3 5 6 8 8 7 7 8 7 7 6 7 8 9 8 7 6 5 3 1 0 0 0 0 1 3 3
3 3 3 3 2 1 0 0 0 0 0 0 0 0 0 0 2 3 4 5 6 6 6 7 7 6 6 6 7 8 8 7 5 3 1 0 0 0 1 1 2 3 3
3 3 3 3 3 2 1 0 0 0 0 0 0 0 0 0 0 1 2 2 3 4 5 6 6 6 6 6 7 8 8 6 4 2 1 0 0 1 1 2 3 3 3
4 4 3 3 3 3 2 1 0 0 0 0 0 0 0 0 0 1 1 1 1 2 4 5 5 5 5 5 6 7 7 5 4 3 1 1 1 2 1 1 3 3 3
5 4 4 3 3 3 3 2 1 0 0 0 0 0 0 0 0 1 1 2 1 1 2 2 3 3 4 4 4 5 5 4 3 3 3 2 3 3 1 1 2 3 3
4 4 3 3 3 3 3 3 2 1 0 0 0 0 0 0 0 0 1 2 2 1 0 0 2 3 3 3 3 3 4 3 3 3 3 3 4 3 1 0 2 3 3
3 3 4 3 3 3 3 3 3 2 1 0 0 0 0 0 0 0 1 2 2 1 0 1 2 3 3 3 3 3 3 3 3 3 3 3 3 2 1 0 1 2 2
3 4 5 4 4 3 3 3 3 2 1 0 1 1 0 0 0 0 1 2 2 1 1 2 3 3 3 3 3 3 3 2 2 2 2 2 2 1 0 0 1 1 1
4 4 6 6 5 4 3 3 3 3 1 1 2 1 0 0 0 0 0 1 1 0 1 2 3 3 3 2 2 2 1 1 1 1 0 1 1 0 0 0 0 0 0
4 5 6 6 6 5 4 3 3 3 2 2 2 1 1 1 0 0 0 0 0 0 0 1 2 2 1 1 1 1 0 0 0 0 0 0 0 0 0 0 0 0 0
4 5 6 6 6 6 5 4 4 4 3 2 1 1 2 2 1 0 1 1 1 0 0 0 1 1 0 0 0 0 0 0 0 0 0 0 0 0 0 0 0 0 0
4 5 6 6 6 6 5 5 4 5 4 3 2 1 2 3 2 1 1 2 1 0 0 0 0 0 0 0 0 0 0 0 0 0 0 0 0 0 0 0 0 0 0
4 5 5 5 5 5 4 4 4 5 5 4 3 2 3 3 2 1 1 2 2 1 0 0 0 0 0 0 0 0 0 0 0 0 0 0 0 0 0 0 0 0 0
4 4 4 4 5 5 4 3 3 4 5 5 3 3 3 3 2 1 2 3 3 2 1 0 0 0 0 0 0 0 0 0 0 0 0 0 0 0 0 0 0 0 0
3 4 5 4 5 5 4 3 3 3 4 4 3 3 3 3 3 2 3 3 3 2 1 0 0 0 0 0 0 0 0 0 0 0 0 0 0 0 0 0 0 0 0
2 4 6 4 3 3 3 3 3 3 3 3 3 3 3 3 3 3 3 3 3 3 1 0 0 0 0 0 0 0 0 0 0 0 0 0 0 0 0 0 0 0 0
1 4 6 5 3 3 3 4 4 4 3 3 3 3 3 3 3 3 3 3 3 3 2 1 1 1 0 0 0 0 0 0 0 0 0 0 0 0 0 0 0 0 0
1 3 5 6 5 3 4 5 6 5 4 4 3 3 3 3 3 3 3 3 3 3 3 3 2 1 0 0 0 0 0 0 0 0 0 0 0 0 0 0 0 0 0
1 3 4 6 6 5 5 6 6 6 6 5 4 4 3 3 3 3 3 3 3 3 3 3 2 1 0 0 0 0 0 0 0 0 0 0 0 0 0 0 0 0 0
2 3 4 5 6 6 6 7 7 7 7 6 5 4 4 3 3 3 3 3 3 3 3 3 1 0 0 0 0 0 0 0 0 0 0 0 0 0 0 0 0 0 0
5 4 3 4 4 5 6 7 9 9 7 5 4 4 3 3 3 3 3 3 3 3 3 2 1 0 0 0 0 0 0 0 0 0 0 0 0 0 0 0 0 0 0
9 6 3 1 2 4 5 6 8 8 6 4 3 3 3 3 3 3 3 3 3 2 1 1 0 0 0 0 0 0 0 0 0 0 0 0 0 0 0 0 0 0 0
11 8 3 1 1 4 4 4 5 7 6 4 3 3 3 3 3 3 3 3 3 1 0 0 0 0 0 0 0 0 0 0 0 0 0 0 0 0 0 0 0 0 0
Wind_Speed
5 7 9 10 11 11 11 11 11 11 11 11 11 10 9 9 8 8 7 8 8 9 9 9 8 9 9 9 9 9 8 8 8 9 8 8 7 7 7 7 7 6 9
7 8 10 10 11 11 11 11 11 12 12 12 11 11 10 10 9 9 9 9 9 9 9 9 8 9 9 9 8 8 8 7 7 7 7 7 7 7 7 7 8 6 9
8 8 9 10 11 11 11 11 11 12 12 12 12 12 12 12 12 11 11 10 10 10 9 9 9 9 9 8 8 7 6 6 6 5 4 4 5 7 8 8 9 8 8
9 9 9 10 11 11 11 11 12 12 12 13 12 12 13 13 12 12 11 10 10 9 9 8 8 9 9 8 7 7 6 6 5 4 3 4 4 8 8 8 8 8 8
10 10 9 10 11 11 11 12 12 12 12 12 12 12 13 13 13 12 12 10 9 9 8 8 8 8 8 8 7 6 6 6 6 5 4 5 4 7 8 7 7 7 8
10 10 9 10 10 11 11 12 12 12 13 12 12 12 12 13 13 13 12 10 9 9 9 9 9 8 8 8 7 6 6 7 6 5 4 4 4 6 7 6 6 7 8
9 9 9 10 10 11 11 12 12 12 12 12 12 12 12 12 12 12 12 12 11 9 9 9 8 8 8 7 7 6 6 7 5 5 5 4 5 7 7 7 7 7 8
8 9 9 10 11 11 11 11 11 11 11 12 11 12 12 12 12 13 12 12 11 10 9 8 8 8 8 8 7 7 7 7 6 6 5 4 7 9 9 9 9 9 8
7 7 7 7 8 9 10 10 9 10 10 10 10 10 10 11 12 12 12 11 10 9 9 9 9 9 9 8 7 7 7 8 5 4 6 4 8 10 10 10 10 9 9
5 5 6 6 6 6 6 7 7 7 7 7 7 7 8 9 10 11 11 11 10 8 8 9 9 9 8 7 6 5 5 5 5 5 4 5 10 10 10 10 9 9 9
4 4 5 5 5 5 5 5 4 4 4 3 3 5 4 3 5 6 9 10 10 10 9 9 8 7 6 5 5 5 4 3 5 5 4 8 10 10 11 10 10 10 10
4 3 4 5 4 4 4 4 2 2 2 1 2 3 2 3 4 6 6 8 8 8 7 7 6 5 4 3 4 4 2 4 4 5 5 10 10 10 10 10 11 11 11
3 2 3 4 4 4 3 2 1 1 1 2 3 4 3 3 3 3 2 2 3 4 3 4 3 2 3 3 3 3 4 4 4 4 6 10 11 11 11 11 12 12 12
3 3 3 4 4 4 3 2 2 2 2 2 2 3 3 2 2 2 2 2 2 2 3 3 3 4 4 4 4 5 5 4 4 4 5 11 11 12 12 12 12 12 12
4 3 3 3 4 4 3 1 3 2 2 2 2 3 4 3 3 3 2 3 3 3 3 3 4 5 5 5 5 6 5 6 6 5 5 10 11 11 11 11 11 11 12
4 4 3 3 3 3 2 2 2 2 2 2 2 3 4 3 3 3 3 3 3 2 3 3 4 4 4 4 5 5 5 5 5 6 5 6 10 10 11 11 11 11 11
4 4 4 3 3 3 3 3 2 2 3 2 2 3 3 3 3 3 3 3 2 3 3 3 4 3 4 4 5 5 4 5 5 5 5 4 5 8 10 10 10 10 10
4 4 4 3 3 3 3 3 2 2 2 2 2 2 3 3 4 3 3 2 3 3 3 3 3 4 4 3 3 3 3 4 4 4 4 4 3 4 6 9 9 9 9
4 4 4 4 3 3 3 2 3 2 2 2 2 2 2 3 4 3 2 2 3 3 3 3 3 3 3 3 2 3 3 3 3 4 4 4 4 4 3 6 8 8 8
3 4 4 4 4 2 1 2 2 2 2 2 2 2 2 2 3 3 2 3 3 3 3 3 3 3 2 2 3 4 3 2 3 3 3 3 3 3 4 4 3 5 7
4 4 4 4 3 2 1 1 1 1 1 2 2 2 2 2 3 2 2 3 2 2 2 3 3 2 2 2 2 2 2 3 3 2 2 3 3 3 3 3 3 3 3
4 3 3 3 3 3 1 1 2 2 2 2 1 2 2 2 3 2 3 2 2 2 2 3 3 2 1 1 1 2 1 2 2 2 2 2 2 2 2 3 3 3 3
3 3 3 3 3 3 3 1 2 2 1 2 2 1 1 2 2 2 2 2 2 2 2 2 2 2 1 1 1 2 2 1 1 1 2 2 2 2 2 2 3 3 3
4 3 3 3 3 3 3 2 2 2 2 2 2 2 1 2 2 1 2 2 2 2 2 2 2 1 1 0 1 1 1 3 2 0 2 1 2 2 2 2 3 2 3
4 3 2 3 3 2 2 3 3 2 2 2 2 3 2 2 1 2 2 2 2 2 2 1 2 1 1 1 1 1 1 1 1 2 0 1 1 1 1 1 2 2 2
4 3 2 3 3 2 2 2 3 3 2 2 2 2 2 1 1 1 2 2 2 1 1 1 1 1 1 1 0 0 1 1 0 1 1 1 0 0 1 1 1 1 2
Wind_Direction
77 74 49 45 45 46 47 48 47 46 45 45 45 45 49 51 55 70 87 90 91 94 93 90 88 87 86 88 93 97 98 95 95 92 89 89 89 92 96 94 90 90 93
90 83 62 49 49 48 49 51 51 48 48 48 49 47 52 55 58 71 80 85 88 90 90 86 86 90 90 87 88 93 93 93 97 98 94 88 84 84 87 85 83 93 94
92 88 69 52 52 51 51 53 54 52 50 51 52 52 52 54 59 69 75 77 82 86 87 86 84 89 90 88 88 89 90 90 90 92 86 88 88 87 90 89 92 94 94
88 81 69 59 55 54 54 55 55 54 53 53 54 55 54 54 57 64 69 72 78 84 87 88 89 89 90 91 89 86 80 79 78 79 75 80 86 91 93 92 92 95 93
86 84 76 66 61 58 57 57 56 56 55 56 57 57 57 57 59 61 63 69 75 78 82 86 90 91 90 90 86 80 77 77 70 67 67 68 71 93 93 90 91 95 93
92 90 83 73 69 65 63 62 60 59 56 57 59 61 61 62 62 60 61 67 75 80 83 85 88 88 85 81 76 70 73 75 69 65 61 64 71 86 93 97 97 97 95
96 99 96 86 80 74 69 65 62 61 60 59 61 62 62 62 63 63 61 64 68 77 83 84 85 86 83 76 72 70 72 76 77 73 65 61 66 76 83 93 102 96 97
96 102 109 100 92 83 77 72 68 64 63 63 64 65 64 63 65 66 65 65 65 69 79 84 88 88 86 81 75 66 57 65 81 81 75 68 72 75 76 88 97 94 97
92 104 116 119 108 95 87 80 76 70 68 69 68 69 67 65 66 67 67 66 66 68 75 82 86 87 85 82 74 65 57 53 61 69 77 73 79 83 81 83 88 92 92
89 96 108 115 116 115 106 92 88 81 75 75 71 72 73 71 69 68 66 65 63 66 84 94 97 95 93 91 79 68 61 59 71 70 65 75 82 83 82 81 84 90 92
91 101 110 112 111 114 118 106 106 98 85 80 73 76 84 75 74 69 71 69 64 66 83 97 102 102 104 100 87 76 71 77 77 75 69 80 84 84 82 80 81 83 84
91 87 100 107 112 110 99 109 113 97 98 83 68 77 67 63 69 78 80 75 71 71 84 95 101 102 98 97 91 88 75 80 75 77 77 81 83 85 84 83 83 82 81
107 95 95 108 106 106 99 100 98 74 67 55 56 65 59 60 71 77 78 74 64 69 66 83 93 95 93 92 87 79 75 75 75 75 75 80 80 81 82 81 82 82 82
98 99 96 94 101 99 96 97 93 79 63 52 44 71 64 50 49 58 67 51 52 45 46 52 57 57 65 68 72 76 72 75 82 80 79 81 82 83 83 83 84 83 83
124 107 93 86 91 102 108 112 94 76 78 73 36 54 70 61 59 52 65 61 54 49 51 49 53 52 52 55 59 65 72 77 84 83 81 83 82 85 87 85 85 86 86
124 115 107 107 99 103 108 99 95 101 88 79 59 57 71 67 68 65 58 60 58 57 59 66 66 56 54 54 55 54 58 68 82 91 91 83 83 86 87 85 86 86 87
122 113 105 107 95 88 87 87 88 84 87 75 62 61 64 68 68 66 60 59 57 58 61 65 67 65 67 63 59 56 55 52 73 84 93 93 84 83 87 83 84 84 83
121 116 110 97 94 87 81 75 79 80 78 74 61 57 61 69 72 69 61 57 55 58 61 66 64 62 56 57 58 60 60 49 57 81 86 91 94 90 84 85 85 84 85
122 118 115 97 83 77 85 86 73 75 76 73 65 51 57 67 73 76 67 66 60 55 57 65 60 67 69 68 70 75 67 58 48 67 74 84 92 103 102 92 88 82 83
128 118 112 104 94 89 99 95 85 75 77 76 76 64 55 73 75 76 80 71 69 65 62 69 69 61 68 72 83 88 84 76 62 52 58 68 78 90 99 109 100 82 80
131 124 123 120 121 113 100 104 108 108 105 91 86 82 67 72 84 85 81 77 79 81 84 79 78 66 53 61 72 70 61 71 71 65 59 63 63 72 83 96 104 97 86
127 125 137 135 132 119 100 126 131 124 124 116 107 97 84 73 77 82 98 90 87 83 77 75 71 67 34 60 91 91 64 23 18 52 60 67 54 54 73 83 92 93 97
138 142 129 126 120 123 122 112 111 101 92 96 97 88 90 93 84 74 78 99 111 105 100 95 89 79 58 3 52 97 117 134 2 2 45 61 53 54 54 50 74 83 92
143 139 134 127 122 127 134 130 133 138 147 157 139 132 126 111 109 103 88 90 90 96 105 122 117 105 103 41 9 23 87 124 125 23 349 20 56 59 57 56 55 66 79
144 140 143 136 135 128 123 135 145 134 140 140 130 134 141 125 115 107 99 90 90 95 100 85 101 94 85 88 73 35 38 53 116 131 133 336 17 28 59 69 68 72 78
137 138 142 134 138 131 120 142 156 146 145 139 142 145 145 138 147 129 121 108 99 99 94 87 99 109 111 83 72 75 109 95 99 114 141 172 121 299 47 66 95 97 91